Location: Santiago
(33.4378°S, 70.6505°W)
Time: 19:49:22
(UTC+00:00)

ISS - Pass Details

Date: 13 May 2026
Orbit: 414 x 424 km, 51.6° (Epoch: 10 May)

Event Time Altitude Azimuth Distance (km) Brightness Sun altitude
Rises 11:04:23 0° 305° (NW) 2,377 -0.3 -5.0°
Reaches altitude 10° 11:06:30 10° 300° (WNW) 1,518 -1.3 -4.6°
Maximum altitude 11:09:52 54° 221° (SW) 527 -3.5 -3.9°
Drops below altitude 10° 11:13:16 10° 142° (SE) 1,536 -0.6 -3.2°
Sets 11:15:25 0° 137° (SE) 2,408 0.4 -2.8°
